Flag for Russia Weather past 2 weeks in Kaliningrad, Russia

Now
84 °F

Passing clouds.


Feels Like: 84 °F
Forecast: 62 / 76 °F
Wind: 3 mph from Southwest

Location: Kaliningrad/Khrabrovo Airport

Current Time: Jul 5, 2015 at 10:24:29 AM

Latest Report: Jul 5, 2015 at 10:00 AM


Visibility: N/A

Pressure: 30.07 "Hg

Humidity: 43%

Dew point: 59 °F

Location of KaliningradLocation

Historic Weather in Kaliningrad — Graph

°F

Kaliningrad temperature yesterday

Maximum temperature yesterday: 86 °F (at 11:00 AM)
Minimum temperature yesterday: 57 °F (at 1:00 AM)
Average temperature yesterday: 74 °F

Past Weeks' High & Low Weather Summary

 TemperatureHumidityPressure
High86 °F (Jul 4, 11:00 AM)100% (Jun 21, 1:30 AM)30.45 "Hg (Jun 21, 1:30 AM)
Low45 °F (Jun 27, 1:00 AM)28% (Jun 27, 2:00 PM)29.59 "Hg (Jun 23, 5:30 AM)
Average61 °F76%30.06 "Hg
* Reported Jun 20 9:00 AM — Jul 5 9:00 AM, Kaliningrad, Weather by CustomWeather, © 2015

Note: Actual official high and low records may vary slightly from our data, if they occured in-between our weather recording intervals... More about our weather records

Advertising

Kaliningrad weather history for previous 24 hours

 ConditionsComfort  
Time TempWeatherWind HumidityBarometerVisibility
9:00 AM
Sun, Jul 5
79 °FPassing clouds.3 mph54%30.07 "HgN/A
8:30 AM77 °FPassing clouds.3 mph57%30.07 "HgN/A
8:00 AM75 °FPassing clouds.3 mph57%30.07 "HgN/A
7:30 AM73 °FPassing clouds.3 mph57%30.07 "HgN/A
7:00 AM72 °FPassing clouds.3 mph65%30.09 "HgN/A
6:30 AM70 °FSunny.1 mph69%30.09 "Hg10 mi
6:00 AM64 °FClear.No wind83%30.09 "Hg10 mi
5:30 AM63 °FClear.1 mph83%30.07 "Hg10 mi
5:00 AM59 °FClear.1 mph94%30.07 "Hg10 mi
4:30 AM57 °FClear.1 mph94%30.09 "Hg10 mi
4:00 AM57 °FFog.1 mph94%30.09 "HgN/A
3:00 AM59 °FFog.3 mph94%30.09 "HgN/A
2:30 AM59 °FFog.1 mph100%30.09 "HgN/A
2:00 AM59 °FFog.No wind94%30.09 "HgN/A
1:30 AM59 °FClear.1 mph94%30.09 "Hg10 mi
1:00 AM61 °FClear.1 mph94%30.09 "Hg10 mi
12:30 AM61 °FClear.1 mph88%30.09 "Hg10 mi
12:00 AM61 °FFog.1 mph94%30.12 "HgN/A
11:30 PM
Sat, Jul 4
63 °FFog.1 mph88%30.12 "HgN/A
11:00 PM63 °FFog.No wind94%30.12 "HgN/A
10:30 PM63 °FFog.No wind88%30.12 "HgN/A
10:00 PM66 °FFog.1 mph88%30.12 "HgN/A
9:30 PM66 °FFog.No wind88%30.12 "HgN/A
9:00 PM68 °FSunny.No wind83%30.12 "Hg10 mi
8:30 PM72 °FSunny.1 mph73%30.12 "Hg10 mi
8:00 PM75 °FSunny.1 mph61%30.12 "Hg10 mi
7:30 PM77 °FSunny.1 mph57%30.12 "Hg10 mi
7:00 PM77 °FSunny.1 mph54%30.15 "Hg10 mi
6:30 PM77 °FPassing clouds.3 mph57%30.15 "HgN/A
6:00 PM79 °FSunny.3 mph54%30.15 "Hg10 mi
5:30 PM79 °FPassing clouds.3 mph54%30.15 "HgN/A
5:00 PM81 °FPassing clouds.6 mph48%30.15 "HgN/A
4:30 PM82 °FPassing clouds.8 mph40%30.15 "HgN/A
4:00 PM84 °FPassing clouds.6 mph35%30.18 "HgN/A
3:30 PM86 °FPassing clouds.6 mph31%30.18 "HgN/A
3:00 PM84 °FPassing clouds.8 mph31%30.18 "HgN/A
2:30 PM86 °FPassing clouds.6 mph33%30.18 "HgN/A
2:00 PM86 °FSunny.6 mph33%30.18 "Hg10 mi
1:30 PM86 °FPassing clouds.6 mph33%30.21 "HgN/A
1:00 PM86 °FPassing clouds.8 mph29%30.21 "HgN/A
12:30 PM86 °FPassing clouds.6 mph31%30.21 "HgN/A
12:00 PM86 °FPassing clouds.8 mph29%30.21 "HgN/A
11:30 AM86 °FPassing clouds.8 mph31%30.21 "HgN/A
11:00 AM86 °FPassing clouds.8 mph31%30.21 "HgN/A
10:30 AM84 °FPassing clouds.10 mph33%30.21 "HgN/A
10:00 AM82 °FPassing clouds.10 mph37%30.21 "HgN/A
Weather by CustomWeather, © 2015

See weather overviewHow to use our weather pages